Regional Weather Roundup
Issued by NWS Sioux Falls, SD

Home | Current Version | Previous Version | Graphics & Text | Print | Product List | Glossary Off
Versions: 1 2 3 4 5 6 7 8 9 10 11 12 13 14 15 16 17 18 19 20 21 22 23 24 25 26 27 28 29 30 31 32 33 34 35 36 37 38 39 40 41 42 43 44 45 46 47 48 49 50

000
ASUS43 KFSD 281910
RWRFSD

WEATHER ROUNDUP FOR SE SOUTH DAKOTA/SW MINNESOTA/NW IOWA
NATIONAL WEATHER SERVICE SIOUX FALLS SD
200 PM CDT TUE JUL 28 2015

NOTE: "FAIR" INDICATES FEW OR NO CLOUDS BELOW 12,000 FEET WITH NO
SIGNIFICANT WEATHER AND OR OBSTRUCTIONS TO VISIBILITY.


SDZ038>040-050-052>070-282000-
SOUTHEAST SOUTH DAKOTA

CITY           SKY/WX    TMP DP  RH WIND       PRES   REMARKS
BROOKINGS      SUNNY     75  59  57 W21       29.89S
CHAMBERLAIN    SUNNY     77  51  40 W18G24    29.95R
HURON          SUNNY     77  56  48 W18G24    29.88S
MADISON        FAIR      73  59  60 W17G24    29.90S
MITCHELL       SUNNY     78  57  48 NW17      29.92R
SIOUX FALLS    MOSUNNY   78  65  63 NW13G21   29.88R
WINNER         FAIR      79  47  32 NW22G29   29.98S
YANKTON        SUNNY     79  59  50 MISG      29.89F
$$

MNZ071-072-080-081-089-090-097-098-282000-
SOUTHWEST MINNESOTA

CITY           SKY/WX    TMP DP  RH WIND       PRES   REMARKS
FAIRMONT       PTSUNNY   81  68  65 SW10      29.85S
JACKSON        PTSUNNY   81  72  74 SW13G20   29.88R
LUVERNE        CLOUDY    79  68  69 W14       29.88S
MARSHALL       CLOUDY    79  66  65 W16       29.85S
MONTEVIDEO     PTSUNNY   79  79 100 W12       29.83S
PIPESTONE      PTSUNNY   75  68  78 NW14G21   29.89R
REDWOOD FALLS  CLOUDY    83  71  67 SW15      29.80F
TRACY          CLOUDY    79  70  73 W8G16     29.85R
WINDOM         PTSUNNY   79  70  73 SW10G16   29.86R
WORTHINGTON    CLOUDY    73  68  83 SW10      29.88R
$$

IAZ001>003-012>014-020>022-031-032-NEZ013-014-SDZ071-282000-
NORTHWEST IOWA

CITY           SKY/WX    TMP DP  RH WIND       PRES   REMARKS
CHEROKEE       CLOUDY    76  72  88 SW8       29.89R
DENISON        CLOUDY    79  75  89 S10       29.87R
ESTHERVILLE    CLOUDY    79  70  74 SW14G23   29.87R
LE MARS        CLOUDY    73  72  94 VRB6G14   29.90R
ORANGE CITY    CLOUDY    72  70  94 NW12      29.89S FOG
SHELDON        CLOUDY    73  72  94 VRB6      29.87S FOG
SIOUX CITY     LGT RAIN  76  70  82 NW14G23   29.88R
SPENCER        CLOUDY    80  70  71 SW14      29.88R
STORM LAKE     CLOUDY    73  70  88 SW6G14    29.91R
$$

ABBREVIATIONS USED IN REMARKS
   TC - TEMPERATURE IN CELSIUS
  WCI - WIND CHILL INDEX
   HX - HEAT INDEX
  VSB - VISIBILITY



USA.gov is the U.S. government's official web portal to all federal, state and local government web resources and services.